Dewpoint
18 18 15 16 17 16 13 12 12 13 24 23 23 23 21 21 23 23 25 25 26 26 27 29 31 32 32 33 34 34 34 34 36 37 37 38 38 42 44 47 49 53 60 67
18 17 19 23 23 20 18 15 19 21 23 23 21 20 20 21 22 23 25 26 26 27 27 28 30 31 32 33 34 33 34 34 35 36 37 39 39 41 44 47 49 52 58 63
16 18 24 24 24 22 18 20 21 21 23 24 23 21 16 20 21 24 25 26 27 27 28 28 29 32 32 32 33 33 33 34 35 35 36 37 38 40 41 43 44 47 50 56
21 26 25 24 23 25 20 22 24 24 24 22 27 14 18 18 20 23 24 26 27 28 29 29 29 32 31 32 33 33 34 34 35 35 38 38 38 38 39 42 45 47 49 52
22 23 24 23 22 24 22 26 26 26 24 21 19 16 15 20 19 23 24 26 28 29 29 29 29 32 32 32 34 34 34 34 34 35 36 39 38 39 39 41 43 46 50 53
20 21 23 25 25 25 26 25 18 23 20 6 16 12 7 17 21 24 25 27 29 29 29 30 31 32 32 32 33 34 34 33 35 35 37 37 39 38 38 39 40 43 46 51
16 15 20 25 22 23 26 18 2 4 6 3 19 16 11 20 24 26 26 28 29 30 30 30 31 32 33 32 33 34 34 34 34 36 36 36 38 39 38 38 39 40 43 46
11 12 19 23 25 22 25 20 5 -6 2 12 17 5 11 22 26 25 27 28 29 29 29 30 31 33 33 33 33 34 35 34 35 36 36 36 37 39 39 39 39 40 41 43
6 13 22 27 25 24 23 20 24 11 16 4 8 10 18 23 21 23 25 26 27 28 29 30 31 32 33 33 33 34 35 35 35 36 37 36 37 37 38 39 39 39 41 41
13 7 20 25 25 24 24 25 15 17 4 -5 3 14 8 15 16 21 22 23 27 28 28 29 30 32 32 33 34 34 34 35 35 36 36 37 36 37 38 38 38 38 39 41
20 13 19 22 20 13 16 14 16 12 7 -2 -8 1 11 15 15 16 21 23 25 27 28 29 29 31 32 32 33 34 34 34 34 35 36 36 36 36 37 37 37 38 37 39
26 15 17 19 28 25 23 12 5 6 2 -6 -2 5 14 19 21 24 23 23 25 26 28 28 29 30 31 31 32 32 33 34 34 33 35 35 36 35 35 36 37 37 36 37
26 16 7 11 17 21 23 24 17 5 -1 -5 2 7 18 20 20 21 21 24 25 27 27 28 28 29 30 30 31 31 32 33 34 32 33 35 35 34 35 35 36 36 36 35
26 20 11 8 12 19 13 23 21 12 1 -3 3 5 12 14 15 20 24 25 25 25 26 26 27 27 30 30 30 30 31 32 30 31 31 35 34 33 35 35 35 35 35 34
23 15 22 21 22 23 20 21 21 9 10 7 2 5 12 16 20 23 25 24 23 23 24 24 25 27 28 28 29 29 30 30 30 29 31 34 32 32 34 34 34 34 34 34
26 19 23 22 25 23 21 22 21 21 18 9 14 10 17 22 23 24 22 22 22 22 23 23 24 26 27 27 28 29 29 29 29 29 29 33 30 31 32 32 33 33 34 33
21 21 20 20 25 22 12 15 22 20 19 17 12 14 19 23 21 21 21 21 21 23 23 23 23 26 25 26 28 28 29 29 28 29 29 29 29 28 31 30 31 32 32 33
22 21 21 20 21 3 17 22 23 22 21 21 21 22 24 25 19 20 22 21 22 23 24 24 24 26 25 25 26 28 28 28 28 29 28 27 27 28 29 29 30 31 32 32
23 22 18 12 18 14 18 24 23 22 18 23 23 25 25 25 18 18 20 21 23 24 25 23 25 26 25 24 25 26 27 28 29 28 27 25 25 26 27 28 30 30 31 30
23 22 18 17 9 5 16 19 27 24 15 22 27 26 25 20 17 18 20 22 25 25 24 24 24 23 24 25 27 27 27 29 28 28 25 24 25 27 27 28 29 31 32 31
21 18 11 2 4 14 18 20 25 12 13 17 25 26 26 22 21 20 22 24 26 23 23 22 23 24 26 27 28 28 29 28 29 28 25 24 24 26 27 29 30 30 31 31
18 15 11 11 2 3 20 23 16 20 20 20 21 23 25 25 22 23 24 25 23 22 22 23 24 26 28 28 28 27 28 30 29 28 24 24 26 26 27 28 29 29 30 30
15 18 15 16 14 21 22 21 21 21 19 19 21 21 23 23 22 23 25 25 24 20 23 25 27 27 28 29 29 25 27 29 28 23 23 24 25 26 27 28 28 29 30 30
17 20 19 19 20 21 23 24 24 23 23 22 22 21 24 22 22 25 26 26 22 21 25 27 27 27 27 29 29 28 25 25 26 24 25 25 24 26 27 28 29 28 29 29
19 21 18 20 21 22 23 24 24 25 25 21 22 22 22 23 25 25 26 23 21 25 26 26 26 27 27 28 28 27 26 26 25 26 26 25 27 27 27 27 28 29 29 29
22 21 21 21 23 22 21 22 27 25 21 23 23 24 24 24 25 26 23 21 22 27 27 25 27 26 27 27 27 27 27 28 27 27 26 27 27 28 25 25 27 28 29 29
Lifted_Index
10 9 9 10 12 12 11 9 9 11 12 12 12 12 12 13 13 13 13 14 14 15 16 16 16 16 16 16 17 17 17 18 17 16 15 14 13 11 9 7 3 -1 -3 -4
9 9 10 11 12 12 11 10 10 11 12 12 12 11 12 13 13 13 12 12 13 13 14 14 14 15 15 15 15 15 16 17 18 17 17 16 14 13 11 9 6 1 -2 -3
8 10 11 12 12 11 11 11 11 11 12 11 11 10 10 11 11 11 11 10 11 11 12 12 12 13 13 13 13 13 14 15 16 17 17 17 16 14 13 11 9 6 2 0
9 11 12 12 12 11 11 12 12 11 11 10 9 8 8 8 8 8 9 9 9 10 10 11 11 12 12 13 13 12 12 13 14 15 16 16 15 14 14 13 12 10 7 5
10 11 12 12 12 12 12 12 11 10 9 7 6 5 5 5 5 6 8 8 9 9 10 10 11 12 12 13 13 13 13 12 13 13 14 14 14 14 14 13 12 11 9 8
11 12 12 12 12 12 11 10 9 7 6 5 4 3 3 3 4 6 7 8 9 9 9 10 10 11 11 12 13 13 13 13 13 13 13 13 14 14 14 13 13 11 10 8
10 11 12 12 11 11 10 8 6 4 3 3 2 2 2 3 5 6 7 8 8 9 9 9 10 10 11 12 12 13 13 13 14 14 13 13 14 14 14 13 13 12 10 8
7 9 11 11 11 10 9 7 5 3 2 2 2 2 3 4 5 6 7 7 8 8 9 9 9 10 11 11 12 13 13 13 14 14 14 14 14 14 14 13 13 12 10 9
7 8 10 11 10 10 8 7 5 3 2 1 2 2 3 4 5 5 6 6 6 7 8 9 9 10 10 11 12 12 13 13 13 14 14 14 14 14 13 13 13 12 11 9
9 8 9 10 10 9 8 7 5 4 2 1 1 2 2 3 4 5 5 5 5 7 8 8 9 9 10 11 11 12 13 13 13 13 14 14 14 14 13 12 12 12 11 10
10 9 9 9 10 9 8 7 6 4 3 1 1 2 2 3 4 4 4 5 5 6 7 8 8 9 10 10 11 12 13 13 14 14 13 14 14 13 13 12 12 12 12 11
10 9 7 8 9 9 8 7 6 4 3 2 2 2 3 4 4 4 4 5 6 6 7 8 8 9 9 10 11 12 13 14 14 14 14 13 13 13 13 12 12 12 12 11
10 8 6 6 8 8 8 7 5 5 4 3 3 3 3 4 4 4 4 5 6 6 7 7 7 8 8 9 10 12 13 14 15 15 14 14 13 13 13 13 12 12 11 11
10 8 7 6 7 8 7 6 6 5 4 4 3 4 4 4 4 4 4 5 6 6 6 6 7 7 7 8 9 11 13 14 16 16 15 14 14 14 14 13 13 13 12 12
9 8 8 8 8 8 7 7 6 5 5 4 4 4 4 4 4 4 4 5 5 6 6 6 6 6 7 7 8 10 11 14 15 16 15 15 15 15 14 14 14 14 13 13
9 8 7 7 8 8 7 7 6 6 6 5 5 5 5 4 4 4 4 5 5 6 6 6 6 6 7 7 8 9 11 12 13 14 15 15 15 15 15 15 15 14 14 14
9 8 7 6 6 6 6 7 7 7 7 6 6 5 5 4 4 5 5 5 5 5 5 5 6 6 7 7 8 9 11 12 12 13 14 14 15 15 15 16 16 15 15 15
9 8 7 5 5 5 6 8 8 8 7 7 6 5 5 4 4 4 5 5 5 5 5 5 6 6 7 7 9 10 11 12 12 12 13 13 14 15 15 16 17 17 17 16
9 8 7 5 4 5 7 8 8 8 7 7 6 6 5 5 4 4 5 5 5 5 5 5 6 6 7 8 10 11 12 12 12 12 13 13 14 14 15 16 17 17 17 17
9 8 6 5 4 5 7 9 8 7 7 7 7 6 6 5 5 5 5 5 5 5 5 6 6 7 8 9 11 12 12 12 13 13 13 13 14 14 15 16 17 17 17 17
6 6 6 5 4 5 7 9 8 7 7 7 7 7 6 6 6 6 6 5 5 5 5 6 7 8 10 11 12 12 12 13 13 13 13 14 14 14 15 15 16 16 16 16
5 5 5 5 5 6 8 9 8 8 7 7 7 7 6 6 6 7 6 6 6 6 6 7 8 10 11 12 12 12 12 12 13 13 13 14 14 15 15 15 15 15 15 16
6 6 6 6 7 8 9 9 8 8 8 7 7 7 7 7 7 7 7 7 7 7 8 9 10 11 12 12 12 12 12 12 12 12 13 13 14 14 15 15 15 15 15 15
8 8 7 7 8 9 9 9 8 8 7 7 7 7 7 8 8 8 7 7 8 9 10 11 12 12 12 12 12 12 12 11 11 11 12 12 13 14 14 14 15 15 15 15
8 8 7 7 8 9 9 8 8 8 8 7 7 7 7 8 8 8 7 8 9 10 12 12 12 12 12 12 11 11 11 11 11 11 11 12 12 13 13 14 14 15 16 16
8 7 6 6 8 9 9 9 8 8 8 7 7 7 7 8 8 7 7 8 10 11 12 12 12 12 12 12 11 11 11 10 11 11 11 11 12 12 12 13 14 15 16 16